Location: Brantley
(31.5822°N, 86.2569°W)
Time: 06:18:16
(UTC+00:00)

Vanguard 2 - Pass Details

Date: 18 February 2026
Orbit: 553 x 2896 km, 32.9° (Epoch: 9 March)

Event Time Altitude Azimuth Distance (km) Brightness Sun altitude
Rises 14:42:28 0° 280° (W) 2,848 10.0 26.2°
Reaches altitude 10° 14:44:48 10° 280° (W) 1,856 9.1 26.7°
Maximum altitude 14:48:48 86° 195° (SSW) 558 7.3 27.3°
Drops below altitude 10° 14:53:04 10° 103° (ESE) 1,971 10.9 28.1°
Sets 14:55:36 0° 103° (ESE) 3,046 11.6 28.5°
